Weather History for Toronto Pearson, ON

Change the Weather History Date:

Saturday, October 20, 2012

  Actual Average Record
Temperature  
Mean Temperature 49 °F -  
Max Temperature 52 °F 49 °F 73 °F (2000)
Min Temperature 44 °F 33 °F 33 °F (2005)
Degree Days  
Heating Degree Days 16    
Moisture  
Dew Point 45 °F    
Average Humidity 84    
Maximum Humidity 94    
Minimum Humidity 60    
Precipitation  
Precipitation 0.08 in 0.09 in - ()
Sea Level Pressure  
Sea Level Pressure 29.65 in    
Wind  
Wind Speed 6 mph ()    
Max Wind Speed 14 mph    
Max Gust Speed -    
Visibility 13.6 miles    
Events Rain    
Averages and records for this station are not official NWS values.
T = Trace of Precipitation, MM = Missing Value Source: Averaged Metar Reports

Daily Weather History Graph

Daily Weather History Graph

Search for Another Location

Airport:

Trip Planner

Search our weather history database for the weather conditions in past years. The results will help you decide how hot, cold, wet, or windy it might be!

Date:

Astronomy

Oct. 20, 2012 Rise Set
Actual Time 7:39 AM EDT 6:26 PM EDT
Civil Twilight 7:10 AM EDT 6:55 PM EDT
Nautical Twilight 6:36 AM EDT 7:28 PM EDT
Astronomical Twilight 6:03 AM EDT 8:01 PM EDT
Moon 1:19 PM EDT (10/20) 11:05 PM EDT (10/20)
Length of Visible Light 11h 44m
Length of Day
10h 46m
Waxing Crescent, 34% of the Moon is Illuminated
Oct 20
Waxing Crescent
Oct 21
First Quarter
Oct 29
Full
Nov 6
Last Quarter
Nov 13
New

Hourly Weather History & Observations

Time (EDT) Temp. Windchill Dew Point Humidity Pressure Visibility Wind Dir Wind Speed Gust Speed Precip Events Conditions
12:00 AM 51.8 °F - 48.2 °F 88% 29.64 in 7.0 mi Calm Calm - N/A Rain Light Rain
1:00 AM 50.0 °F - 48.2 °F 94% 29.61 in 15.0 mi NNE 9.2 mph - N/A   Mostly Cloudy
2:00 AM 51 °F - 47 °F 80% 29.60 in 15 mi NE 2.3 mph - -   Partly Cloudy
2:00 AM 51.8 °F - 46.4 °F 82% 29.60 in 15.0 mi NE 2.3 mph - N/A   Mostly Cloudy
2:33 AM 50.0 °F - - N/A% - 10.0 mi South 2.3 mph - N/A Rain Light Rain Showers
3:00 AM 50.0 °F - 48.2 °F 94% 29.62 in 7.0 mi SSW 8.1 mph - N/A Rain Light Rain Showers
3:08 AM 50.0 °F - - N/A% - 3.0 mi SSW 10.4 mph - N/A Rain Light Rain
4:00 AM 48.2 °F - 46.4 °F 93% 29.62 in 7.0 mi SW 4.6 mph - N/A Rain Light Rain
5:00 AM 48.2 °F - 46.4 °F 93% 29.62 in 10.0 mi South 3.5 mph - N/A Rain Light Rain
5:32 AM 48.2 °F - - N/A% - 15.0 mi South 3.5 mph - N/A   Overcast
6:00 AM 48.2 °F - 46.4 °F 93% 29.62 in 15.0 mi SSE 3.5 mph - N/A   Mostly Cloudy
7:00 AM 48.2 °F - 46.4 °F 93% 29.63 in 15.0 mi South 4.6 mph - N/A   Mostly Cloudy
8:00 AM 47 °F - 45 °F 89% 29.63 in 15 mi SSW 5.8 mph - -   Partly Cloudy
8:00 AM 46.4 °F 44.3 °F 44.6 °F 93% 29.63 in 15.0 mi South 4.6 mph - N/A   Partly Cloudy
9:00 AM 48.2 °F - 44.6 °F 87% 29.64 in 15.0 mi SSW 6.9 mph - N/A   Mostly Cloudy
10:00 AM 50.0 °F - 46.4 °F 87% 29.63 in 15.0 mi WSW 11.5 mph - N/A   Mostly Cloudy
11:00 AM 51.8 °F - 44.6 °F 76% 29.63 in 15.0 mi WSW 12.7 mph - N/A   Mostly Cloudy
12:00 PM 51.8 °F - 44.6 °F 76% 29.65 in 15.0 mi WSW 12.7 mph - N/A   Mostly Cloudy
1:00 PM 51.8 °F - 42.8 °F 71% 29.64 in 15.0 mi SW 10.4 mph - N/A   Overcast
2:00 PM 52 °F - 42 °F 60% 29.64 in 15 mi SW 11.5 mph - -   Mostly Cloudy
2:00 PM 51.8 °F - 42.8 °F 71% 29.64 in 15.0 mi SW 10.4 mph - N/A   Mostly Cloudy
3:00 PM 51.8 °F - 42.8 °F 71% 29.64 in 15.0 mi SW 12.7 mph - N/A   Overcast
3:47 PM 50.0 °F - - N/A% - 15.0 mi West 13.8 mph - N/A Rain Light Rain Showers
4:00 PM 50.0 °F - 44.6 °F 82% 29.65 in 15.0 mi West 11.5 mph - N/A Rain Light Rain Showers
5:00 PM 50.0 °F - 44.6 °F 82% 29.66 in 15.0 mi WSW 8.1 mph - N/A   Mostly Cloudy
6:00 PM 50.0 °F - 44.6 °F 82% 29.68 in 15.0 mi WSW 8.1 mph - N/A   Mostly Cloudy
6:20 PM 50.0 °F - - N/A% - 12.0 mi WSW 8.1 mph - N/A Rain Light Rain Showers
7:00 PM 50.0 °F - 46.4 °F 87% 29.70 in 15.0 mi WSW 8.1 mph - N/A   Overcast
8:00 PM 50 °F - 45 °F 77% 29.71 in 15 mi West 10.4 mph - - Rain Light Rain Showers
8:00 PM 50.0 °F - 44.6 °F 82% 29.71 in 15.0 mi West 11.5 mph - N/A Rain Light Rain Showers
8:19 PM 48.2 °F - - N/A% - 15.0 mi WNW 9.2 mph - N/A   Mostly Cloudy
9:00 PM 48.2 °F - 42.8 °F 82% 29.74 in 15.0 mi WNW 12.7 mph - N/A   Mostly Cloudy
10:00 PM 48.2 °F - 42.8 °F 82% 29.75 in 15.0 mi West 9.2 mph - N/A   Mostly Cloudy
11:00 PM 44.6 °F 39.2 °F 42.8 °F 93% 29.77 in 15.0 mi WSW 10.4 mph - N/A   Scattered Clouds